Madison, WI

5:12 AM CDT on September 27, 2016 (GMT -0500)
Dane County Regional-Truax

Weather History for KMSN - February, 2013

Change the Weather History Date:

Tuesday, February 5, 2013

  Actual Average Record
Temperature  
Mean Temperature 17 °F 20 °F  
Max Temperature 30 °F 28 °F 54 °F (1946)
Min Temperature 4 °F 13 °F -21 °F (1936)
Degree Days  
Heating Degree Days 48 45  
Month to date heating degree days 273 225  
Since 1 July heating degree days 4207 4538  
Cooling Degree Days 0 0  
Month to date cooling degree days 0 0  
Year to date cooling degree days 0 0  
Moisture  
Dew Point 14 °F    
Average Humidity 78    
Maximum Humidity 88    
Minimum Humidity 68    
Precipitation  
Precipitation 0.10 in 0.04 in 0.64 in (1953)
Month to date precipitation 0.36 0.21  
Year to date precipitation 3.23 1.44  
Snow  
Snow 1.30 in 0.40 in 5.00 in (1974)
Month to date snowfall 6.3 2.1  
Since 1 July snowfall 38.7 32.6  
Snow Depth 7.00 in    
Sea Level Pressure  
Sea Level Pressure 29.88 in    
Wind  
Wind Speed 6 mph (WSW)    
Max Wind Speed 18 mph    
Max Gust Speed 25 mph    
Visibility 6 miles    
Events Snow    
T = Trace of Precipitation, MM = Missing Value Source: NWS Daily Summary

Daily Weather History Graph

Daily Weather History Graph

Search for Another Location

Airport or City:

Trip Planner

Search our weather history database for the weather conditions in past years. The results will help you decide how hot, cold, wet, or windy it might be!

Date:

Astronomy

Feb. 05, 2013 Rise Set
Actual Time 7:07 AM CST 5:15 PM CST
Civil Twilight 6:38 AM CST 5:45 PM CST
Nautical Twilight 6:04 AM CST 6:19 PM CST
Astronomical Twilight 5:31 AM CST 6:52 PM CST
Moon 2:52 AM CST (2/5) 12:29 PM CST (2/5)
Length of Visible Light 11h 07m
Length of Day
10h 07m
Waning Crescent, 26% of the Moon is Illuminated
Feb 5
Waning Crescent
Feb 10
New
Feb 17
First Quarter
Feb 25
Full
Mar 4
Last Quarter

Hourly Weather History & Observations

Time (CST) Temp. Windchill Dew Point Humidity Pressure Visibility Wind Dir Wind Speed Gust Speed Precip Events Conditions
12:53 AM 10.0 °F 0.4 °F 3.0 °F 73% 29.94 in 10.0 mi South 5.8 mph - N/A   Clear
1:53 AM 8.1 °F - 1.9 °F 76% 29.94 in 10.0 mi Calm Calm - N/A   Clear
2:53 AM 10.0 °F 1.8 °F 3.0 °F 73% 29.92 in 10.0 mi SW 4.6 mph - N/A   Partly Cloudy
3:53 AM 12.0 °F 1.5 °F 5.0 °F 73% 29.90 in 10.0 mi South 6.9 mph - N/A   Overcast
4:53 AM 12.0 °F 0.5 °F 6.1 °F 77% 29.88 in 4.0 mi South 8.1 mph - 0.00 in Snow Light Snow
5:00 AM 12.2 °F 0.7 °F 6.8 °F 79% 29.82 in 1.8 mi South 8.1 mph - 0.00 in Snow Light Snow
5:16 AM 12.2 °F -0.2 °F 6.8 °F 79% 29.81 in 2.0 mi South 9.2 mph - 0.00 in Snow Light Snow
5:26 AM 12.2 °F -2.5 °F 6.8 °F 79% 29.80 in 3.0 mi South 12.7 mph 17.3 mph 0.01 in Snow Light Snow
5:53 AM 12.9 °F -0.2 °F 8.1 °F 81% 29.84 in 8.0 mi South 10.4 mph - 0.01 in Snow Light Snow
6:53 AM 15.1 °F 4.2 °F 10.0 °F 80% 29.85 in 10.0 mi SSW 8.1 mph - 0.00 in   Overcast
7:53 AM 16.0 °F 5.3 °F 10.9 °F 81% 29.82 in 8.0 mi South 8.1 mph - N/A   Overcast
8:02 AM 15.8 °F 5.1 °F 12.2 °F 86% 29.77 in 8.0 mi South 8.1 mph 25.3 mph N/A   Overcast
8:53 AM 19.0 °F 10.0 °F 12.9 °F 77% 29.82 in 8.0 mi SW 6.9 mph - N/A   Overcast
9:24 AM 19.4 °F 11.5 °F 14.0 °F 80% 29.76 in 7.0 mi Variable 5.8 mph - N/A   Overcast
9:41 AM 19.4 °F 12.8 °F 15.8 °F 86% 29.76 in 1.5 mi Variable 4.6 mph - 0.00 in Snow Light Snow
9:53 AM 19.9 °F 10.1 °F 16.0 °F 85% 29.81 in 1.0 mi SW 8.1 mph - 0.00 in Snow Light Snow
10:08 AM 19.4 °F 9.5 °F 15.8 °F 86% 29.75 in 0.8 mi SSW 8.1 mph - 0.01 in Snow Light Snow
10:33 AM 19.4 °F 9.5 °F 17.6 °F 93% 29.76 in 0.8 mi SW 8.1 mph - 0.03 in Snow Light Snow
10:53 AM 21.0 °F 12.4 °F 18.0 °F 88% 29.82 in 0.8 mi WSW 6.9 mph - 0.06 in Snow Light Snow
11:02 AM 21.2 °F 13.6 °F 17.6 °F 86% 29.77 in 0.8 mi SW 5.8 mph - 0.01 in Snow Light Snow
11:18 AM 21.2 °F 14.9 °F 17.6 °F 86% 29.77 in 0.8 mi Variable 4.6 mph - 0.01 in Snow Light Snow
11:53 AM 23.0 °F 15.8 °F 19.0 °F 85% 29.81 in 1.0 mi WSW 5.8 mph - 0.02 in Snow Light Snow
12:22 PM 24.8 °F 19.1 °F 19.4 °F 80% 29.76 in 1.5 mi Variable 4.6 mph - 0.01 in Snow Light Snow
12:34 PM 26.6 °F - 21.2 °F 80% 29.76 in 1.5 mi Calm Calm - 0.01 in Snow Light Snow
12:41 PM 26.6 °F 20.0 °F 19.4 °F 74% 29.76 in 3.0 mi Variable 5.8 mph - 0.01 in Snow Light Snow
12:53 PM 26.1 °F 19.4 °F 19.9 °F 78% 29.81 in 7.0 mi Variable 5.8 mph - 0.01 in   Overcast
1:53 PM 27.0 °F 20.5 °F 21.0 °F 78% 29.83 in 7.0 mi WNW 5.8 mph - N/A   Overcast
2:53 PM 28.9 °F 22.8 °F 21.9 °F 75% 29.86 in 7.0 mi NW 5.8 mph - N/A   Overcast
3:53 PM 28.9 °F 21.9 °F 21.9 °F 75% 29.89 in 8.0 mi NW 6.9 mph - N/A   Overcast
4:53 PM 28.9 °F 22.8 °F 21.9 °F 75% 29.92 in 8.0 mi NNW 5.8 mph - N/A   Overcast
5:53 PM 28.9 °F 21.9 °F 21.9 °F 75% 29.96 in 10.0 mi NNW 6.9 mph - N/A   Overcast
6:53 PM 28.0 °F 18.6 °F 19.0 °F 69% 30.00 in 10.0 mi NNW 10.4 mph - N/A   Overcast
7:53 PM 27.0 °F 18.7 °F 18.0 °F 69% 30.03 in 10.0 mi NNW 8.1 mph - N/A   Overcast
8:53 PM 25.0 °F 16.3 °F 17.1 °F 72% 30.05 in 10.0 mi North 8.1 mph - N/A   Overcast
9:53 PM 21.9 °F 13.4 °F 15.1 °F 75% 30.08 in 10.0 mi North 6.9 mph - N/A   Overcast
10:53 PM 19.9 °F 14.9 °F 12.9 °F 74% 30.11 in 10.0 mi NNW 3.5 mph - N/A   Mostly Cloudy
11:11 PM 17.6 °F - 12.2 °F 79% 30.07 in 10.0 mi Calm Calm - N/A   Scattered Clouds
11:53 PM 12.9 °F - 9.0 °F 84% 30.13 in 8.0 mi Calm Calm - N/A   Clear